This is the latest recevied weather packets stored in our database for station/object KG2V. If no packets are shown the sender has not sent any weather packets the latest 10 day(s).
| Time | Temp. | Humidity | Pressure | Rain* | Wind** | Luminosity | Snow |
|---|---|---|---|---|---|---|---|
| 1777725186 | 3.33° C | 82% | 1011.2 hPa | 0 mm | - | 43 W/m² | - |
| 1777724882 | 3.33° C | 83% | 1011.1 hPa | 0 mm | - | 36 W/m² | - |
| 1777724579 | 2.78° C | 83% | 1011 hPa | 0 mm | - | 36 W/m² | - |
| 1777724277 | 2.78° C | 85% | 1011.2 hPa | 0 mm | - | 35 W/m² | - |
| 1777723974 | 2.78° C | 85% | 1011.4 hPa | 0 mm | - | 34 W/m² | - |
| 1777723671 | 2.78° C | 86% | 1011.2 hPa | 0 mm | - | 36 W/m² | - |
| 1777723368 | 2.78° C | 87% | 1011.3 hPa | 0 mm | - | 43 W/m² | - |
| 1777723066 | 2.22° C | 87% | 1011.1 hPa | 0 mm | - | 33 W/m² | - |
| 1777722762 | 2.22° C | 88% | 1011.3 hPa | 0 mm | - | 32 W/m² | - |
| 1777722458 | 2.22° C | 88% | 1011.3 hPa | 0 mm | - | 32 W/m² | - |
| 1777722155 | 2.22° C | 88% | 1011.2 hPa | 0 mm | - | 31 W/m² | - |
| 1777721852 | 1.67° C | 89% | 1011.2 hPa | 0 mm | - | 30 W/m² | - |
| 1777721550 | 1.67° C | 89% | 1011.3 hPa | 0 mm | - | 30 W/m² | - |
| 1777721248 | 1.67° C | 89% | 1011.1 hPa | 0 mm | - | 29 W/m² | - |
| 1777720946 | 1.67° C | 89% | 1011.2 hPa | 0 mm | - | 27 W/m² | - |
| 1777720643 | 1.67° C | 89% | 1011.2 hPa | 0 mm | - | 27 W/m² | - |
| 1777720340 | 1.67° C | 90% | 1011 hPa | 0 mm | - | 26 W/m² | - |
| 1777720037 | 1.11° C | 91% | 1011.3 hPa | 0 mm | - | 24 W/m² | - |
| 1777719735 | 1.11° C | 92% | 1011.1 hPa | 0 mm | - | 23 W/m² | - |
| 1777719433 | 1.11° C | 92% | 1011.1 hPa | 0 mm | - | 21 W/m² | - |
| 1777719129 | 1.11° C | 93% | 1010.9 hPa | 0 mm | - | 20 W/m² | - |
| 1777718827 | 1.11° C | 93% | 1010.9 hPa | 0 mm | - | 18 W/m² | - |
| 1777718524 | 0.56° C | 93% | 1011 hPa | 0 mm | - | 17 W/m² | - |
| 1777718221 | 0.56° C | 94% | 1010.7 hPa | 0 mm | - | 15 W/m² | - |
| 1777717919 | 0.56° C | 94% | 1011 hPa | 0 mm | - | 13 W/m² | - |
* Rain latest hour (hover to see other rain measurements)
** Current wind speed in m/s (hover to see current wind gust speed)